Terug naar catalogus

IMS-1

ActiefWetenschapSSO
NORAD 32786·PAYLOAD·🇮🇳 India

Gelanceerd Apr 28, 2008 vanaf Satish Dhawan Space Centre

Loading…

Volgende Passages (komende 24 uur)

TLE

VersSource: Space-Track

Epoch: Sep 14, 2026, 10:35 UTC

1 32786U 08021D   26257.44112565  .00003285  00000-0  23607-3 0  9996
2 32786  97.9566 246.4692 0005317 136.7914 223.3730 15.05002696996626

Volg IMS-1 in realtime met AllMySat

Download on the App Store